{"data":{"norad_id":36799,"epoch":"2026-09-19T16:08:02.589216Z","epoch_age_seconds":85715,"freshness":"FRESH","line1":"1 36799U 10035E   26262.67225219  .00016631  00000+0  49011-3 0  9999","line2":"2 36799  98.0779 217.8973 0000379  99.5988 260.5296 15.35118982882180","mean_motion":15.35118982,"eccentricity":3.79e-5,"inclination_deg":98.0779,"raan_deg":217.8973,"arg_perigee_deg":99.5988,"mean_anomaly_deg":260.5296,"bstar":0.00049011,"rev_number":88218,"period_min":93.803803932118,"perigee_km":460.30792139272,"apogee_km":460.82629516413,"semimajor_km":6838.7041082784,"source":"CELESTRAK","updated_at":"2026-09-20T09:00:48.020465Z"}}